View Events - EPG Web Pony Competition Ranking System

Go to content

Web Pony Competition Result System

© 2016 EPG



Enter or choose Event ID   * required

This page automatically refresh every 120 seconds. Please press the 'Refresh Page' button above for immediate refresh of result.

Event: 26   Stable:  EPG


public use / practising Sneaky Turns Cart


Course:  29

Sneaky Turns Cart

Allowed Runs:  unlimited

Date from:  0000-00-00 00:00:00 to: 0000-00-00 00:00:00 (SLT)

Status:  finished

Host:  none



Ranking


Rank Pony Name Points Time Faults Missed G # Runs #Best Run
1Iren Wyx117496.620003005757
2taka Salome117396.839996009058
3Alli Eberdene117396.949997002626
4Windancer Farslider117097.6100010099
5Pricilla Slade117097.62000300299
6JoanMitchel Resident116997.870003007370
7WildroseAP Resident116898.139999001313
8Ralna Payne116898.15000200399
9AshleyK2813 Resident116698.5299990098
10JoanTemp Resident116698.5899960011
11Zeio Ransford116698.669998003622
12Telra Huntress116698.7300030033
13Telra Resident116598.7600020033
14wetjody Resident116598.889999002422
15Renztoy Resident116598.970001002923
16Jill Freenote116399.26999700166
17TK286233 Resident116399.2799990053
18Liviana Benelli116399.38999900119116
19Cindari Resident116299.570000001918
20Ayesha Askham116199.930000004747
21BunnyH34rt Resident1160100.160004001411
22Annica Clary1159100.2900010061
23Aoife Lawson1159100.47000100109
24jojo1973 Resident1158100.6600040022
25Darkspirrit Lamont1157100.879997001914
26debs Bombastic1156101.070000002520
27nathalbox Resident1155101.4000020097
28Daniella Zenoria1153101.849998001919
29trixi Sirnah1152102.1999970088
30blair20x Resident1148103.0599980055
31HeatherBroadchest Resident1147103.26999700136
32Nico Waxen1147103.3200000054
33Branville Resident1147103.459999001714
34Sandra231 Jinx1145103.980003004434
35Linda Adored1144104.0700000032
36Raine Longfall1144104.1399990011
37goldagold Resident1143104.250000001414
38Line Rajal1143104.290001002018
39Katinka Teardrop1140105.11000100125
40Eve Mannonen1138105.5800020033
41yyCloexx Resident1133106.9599990076
42Ellen Catnap1131107.3899990043
43Chianna Nozaki1130107.570000001312
44Kim1 Pearl1127108.4300000043
45VelocityVenom Resident1108113.0899960073
46Laurastrid Resident1104114.1500020065
47Jessicalox Resident1102114.5999980022
48Jane Enfield1100115.0800020062
49NariaSummerResident Resident1096116.010002002826
50Mer7Maids8 Resident1081119.9599990092
51mookzy Resident1069122.8200000074
52MarieCheverle Resident1067123.41999800139
53devils666destiny Resident1036131.17999300109
54Drizipet Resident1035131.4100040032
55Giannia Rossini1004139.1100010022
56myrubberplaything Resident985143.8699950021
57Merlemarie Resident972147.0099950043
58testsubject42 Resident952152.0000000011
59Peggysue1967 Resident916161.2100070011
60shirley014 Resident904164.1399990041
61cruelinova Resident858175.6900020021
62KiaraSmack Resident851177.4100040011
63alchemyonirc Resident796191.0500030085
64Numie Silvercloud732207.1199950011
65rakcel Resident722188.3200070111
66Rhuoble10 Resident705213.8500060032
67MistyWu Resident679220.3399960022
68LuneZy Resident598240.5299990033
69murielrou Resident35064.47000101021
70Jana Hallenbook310100.18000001022
71Lucia Solari197277.1099850311


Recent Runs

97, 98 or 99 faults indicate aborted runs (by system/pony) due to cheat detection (e.g. fly/run) or reset of the timer system


Run # Pony Name Points Time Fault Missed G Date of Run (UTC)
90taka Salome117297.110001002016-08-11 05:05:00
89taka Salome43560.599998092016-08-11 05:03:11
88taka Salome18034.8400000122016-08-11 05:01:58
87taka Salome117297.110001002016-08-11 04:59:53
86taka Salome9526.0000000132016-08-11 04:58:11
85taka Salome117297.129997002016-08-11 04:57:21
84taka Salome0199.0000000132016-08-11 04:55:01
83taka Salome49101.6299970132016-08-11 04:53:49
82taka Salome811123.709999032016-08-11 04:51:30
81taka Salome116499.000000002016-08-11 04:47:33
80taka Salome0199.0000000122016-08-11 04:45:49
79taka Salome116997.910004002016-08-11 04:44:14
78taka Salome1011.2400000142016-08-11 04:42:31
77taka Salome43559.509998092016-08-11 04:42:05
76taka Salome43568.419998092016-08-11 04:40:48
75taka Salome116598.930000002016-08-11 04:39:32
74taka Salome117396.959999002016-08-11 04:37:19
73taka Salome116698.709999002016-08-11 04:35:05
72taka Salome9523.2300000132016-08-11 04:32:31
71taka Salome117396.910004002016-08-11 04:31:28
70taka Salome0199.0000000122016-08-11 04:29:34
69taka Salome0199.0000000142016-08-11 04:28:11
68taka Salome18024.5599990122016-08-11 04:25:53
67taka Salome117297.089996002016-08-11 04:24:46
66taka Salome0199.0000000102016-08-11 04:22:22
65taka Salome117197.419998002016-08-11 04:18:22
64taka Salome60575.529999072016-08-11 04:16:12
63taka Salome116199.849998002016-08-11 04:14:13
62taka Salome109.5200000142016-08-11 04:12:27
61taka Salome1075100.199997012016-08-11 04:10:39
60taka Salome1079.0199970142016-08-11 04:03:58
59taka Salome18025.7500000122016-08-11 04:02:38
58taka Salome117396.839996002016-08-11 01:46:24
57taka Salome1071101.129997012016-08-11 01:44:42
56taka Salome18031.8700010122016-08-11 01:42:46
55taka Salome117297.089996002016-08-11 01:40:56
54taka Salome116798.379997002016-08-11 01:38:55
53taka Salome101.9700000142016-08-11 01:37:07
52taka Salome60571.370003072016-08-11 01:37:01
51taka Salome1013.2800000142016-08-11 01:35:45
50taka Salome116898.129997002016-08-11 01:35:25
49taka Salome116997.860001002016-08-11 01:33:23
48taka Salome18040.7099990122016-08-11 01:31:33
47taka Salome1013.4700000142016-08-11 01:30:47
46taka Salome116997.800003002016-08-11 01:30:27
45taka Salome1158100.629997002016-08-11 01:28:36
44taka Salome116997.779999002016-08-11 01:26:08
43taka Salome116898.180000002016-08-11 01:24:25
42taka Salome0199.0000000132016-08-11 01:22:24
41taka Salome117097.660004002016-08-11 01:20:13
40taka Salome1156101.199997002016-08-11 01:18:29
39taka Salome35060.2900010102016-08-11 01:16:14
38taka Salome1012.9700000142016-08-11 01:15:07
37taka Salome116199.910004002016-08-11 01:13:50
36taka Salome1021.5100000142016-08-11 01:12:03
35taka Salome99997.889999022016-08-11 01:10:32
34taka Salome117097.680000002016-08-11 01:08:09
33taka Salome1154101.599998002016-08-11 01:05:49
32taka Salome116997.820000002016-08-11 01:03:45
31taka Salome116399.440002002016-08-11 01:01:55
30taka Salome18046.5299990122016-01-19 04:01:49
29taka Salome117197.290001002016-01-19 04:00:23
28taka Salome26545.1600000112016-01-19 03:58:07
27taka Salome9518.5499990132016-01-19 03:55:58
26taka Salome117097.529999002016-01-19 03:55:08
25taka Salome116898.010002002016-01-19 03:52:51
24taka Salome116997.940002002016-01-19 03:50:42
23taka Salome116997.959999002016-01-19 03:47:58
22taka Salome9519.2400000132016-01-19 03:45:54
21taka Salome1157100.800003002016-01-19 03:45:22
20taka Salome116798.290001002016-01-19 03:42:59
19taka Salome117197.349998002016-01-19 03:40:07
18taka Salome116798.339996002016-01-19 03:37:29
17taka Salome116898.099998002016-01-19 03:34:56
16taka Salome1156101.230003002016-01-19 03:33:09
15taka Salome1130107.620003002016-01-18 04:33:52
14taka Salome835117.570000032016-01-18 04:31:48
13taka Salome9533.7999990132016-01-18 04:29:30
12taka Salome1016.1500000142016-01-18 04:28:50
11taka Salome26538.0600010112016-01-18 04:28:24
10taka Salome116399.400002002016-01-18 04:27:38
9taka Salome9520.4000000132016-01-18 04:25:52
8taka Salome52070.769997082016-01-18 04:07:50
7taka Salome117197.250000002016-01-18 04:05:54
6taka Salome117097.519997002016-01-18 04:04:03
5taka Salome117097.629997002016-01-18 04:01:06
4taka Salome116898.220001002016-01-18 03:59:15
3taka Salome116299.529999002016-01-18 03:57:19
2taka Salome9521.9100000132016-01-18 03:55:24
1taka Salome1014.0200000142016-01-18 03:54:56


Copyright © 2015 Enchanting Pony Girls Stable and Training Center, all rights reserved
Back to content